Regional Weather Roundup
Issued by NWS

Home | Current Version | Previous Version | Graphics & Text | Print | Product List | Glossary On
Versions: 1 2 3 4 5 6 7 8 9 10 11 12 13 14 15 16 17 18 19 20 21 22 23 24 25 26 27 28 29 30 31 32 33 34 35 36 37 38 39 40 41 42 43 44 45 46 47 48 49 50
000
ASUS43 KLMK 250910
RWRKY
KENTUCKY REGIONAL WEATHER ROUNDUP
NATIONAL WEATHER SERVICE LOUISVILLE KY
500 AM EDT SAT APR 25 2015

NOTE "FAIR" INDICATES FEW OR NO CLOUDS BELOW 12,000 FEET
WITH NO SIGNIFICANT WEATHER AND/OR OBSTRUCTIONS TO VISIBILITY.

KYZ001>023-026-027-061>063-070>075-251000-
WESTERN AND SOUTH CENTRAL KENTUCKY

CITY           SKY/WX    TMP DP  RH WIND       PRES   REMARKS
PADUCAH        CLOUDY    57  53  86 SE6       29.68F
HENDERSON      CLOUDY    55  45  67 SE5       29.72F
OWENSBORO      CLOUDY    56  47  71 SE6       29.74F
HOPKINSVILLE   CLOUDY    59  55  88 E7        29.70F
BOWLING GREEN  CLOUDY    57  51  80 SE5       29.79F
GLASGOW        LGT RAIN  56  44  65 CALM      29.80F
$$

KYZ024-025-028>034-038-045-046-053-251000-
NORTH CENTRAL KENTUCKY

CITY           SKY/WX    TMP DP  RH WIND       PRES   REMARKS
LOUISVILLE/SDF CLOUDY    54  43  66 SE6       29.78F
LOUISVILLE/LOU LGT RAIN  53  44  71 E3        29.79F
FORT KNOX      CLOUDY    54  40  59 E5        29.77R
$$

KYZ035>037-039>044-047>052-055>060-089>105-251000-
NORTHEAST KENTUCKY

CITY           SKY/WX    TMP DP  RH WIND       PRES   REMARKS
LEXINGTON      CLOUDY    51  44  77 E10       29.83F
COVINGTON      LGT RAIN  48  41  76 S6        29.86F
FRANKFORT      CLOUDY    53  41  63 NE5       29.81F
$$

KYZ054-064>069-076>088-106>120-251000-
SOUTHEAST KENTUCKY

CITY           SKY/WX    TMP DP  RH WIND       PRES   REMARKS
JACKSON        LGT RAIN  49  43  80 CALM      29.86R
LONDON         LGT RAIN  58  36  43 CALM      29.83S
SOMERSET       CLOUDY    55  37  50 S3        29.82F
MIDDLESBORO    CLOUDY    58  34  40 S3        29.85S
MONTICELLO     CLOUDY    57  45  62 CALM      29.84F
$$



USA.gov is the U.S. government's official web portal to all federal, state and local government web resources and services.